Find Starlink 5490

NORAD ID: 57254 Int'l Des: 2023-094 Owner: SPXS Country: US Constellation: starlink operational
LEOCIRCULAR

当前视图

正在加载3D地球...

关于 Starlink 5490

正在加载描述...

即将过境

Passes for default location (London). Set your location on the main map for personalized predictions.

高度历史

Loading altitude history...

两行轨道根数

1 57254U 23094AN 26149.37984554 .00002382 00000-0 96026-4 0 9990
2 57254 43.0063 283.9262 0001580 277.1362 82.9310 15.27586979159585
Epoch: May 29, 2026 • Age: 20 hours

当前状态

高度 490.3 km
速度 7.62 km/s
星下点 -30.53°S, 87.15°W
发射日期 Jul 7, 2023
运行时间 2.8 years
类型 internet

技术详情

分类 Payload
质量 305.00 kg
干质量 290.00 kg
总质量 305.00 kg
长度 0.20 m
直径 2.80 m
跨度 9.00 m
形状 Box + pan
制造商 SPXS
平台类型 Starlink
阶段状态 In Orbit
所有者/国家 SPXS/US

Most Searched